Regional Weather Roundup
Issued by NWS

Home | Current Version | Previous Version | Graphics & Text | Print | Product List | Glossary On
Versions: 1 2 3 4 5 6 7 8 9 10 11 12 13 14 15 16 17 18 19 20 21 22 23 24 25 26 27 28 29 30 31 32 33 34 35 36 37 38 39 40 41 42 43 44 45 46 47 48 49 50
000
ASUS43 KLOT 010503
RWRIL

ILLINOIS REGIONAL WEATHER ROUNDUP
NATIONAL WEATHER SERVICE CHICAGO/ROMEOVILLE IL
1200 AM CDT SUN MAY 01 2016

NOTE: "FAIR" INDICATES FEW OR NO CLOUDS BELOW 12,000 FEET WITH NO
SIGNIFICANT WEATHER AND/OR OBSTRUCTIONS TO VISIBILITY.

* THESE STATIONS ARE NOT UNDER NWS QUALITY CONTROL. THEY ALSO MAY NOT
  REPORT WEATHER SUCH AS PRECIPITATION OR FOG.

ILZ001-002-007-009-015-016-024-010600-
NORTHWEST ILLINOIS

CITY           SKY/WX    TMP DP  RH WIND       PRES   REMARKS
MOLINE         CLOUDY    47  43  86 E14       29.90R
STERLING*      CLOUDY    46  45  93 NE14      29.90F
$$

ILZ003-004-008-010-011-017-018-010600-
NORTH CENTRAL ILLINOIS

CITY           SKY/WX    TMP DP  RH WIND       PRES   REMARKS
ROCKFORD       DRIZZLE   46  44  93 NE16      29.94F FOG
FREEPORT*      CLOUDY    43  42  97 NE12      29.96S FOG
ROCHELLE*      CLOUDY    45  44  97 NE15      29.91S FOG
DE KALB*       CLOUDY    45  44  97 E10       29.91F FOG
$$

ILZ005-006-012>014-019>023-010600-
NORTHEAST ILLINOIS

CITY           SKY/WX    TMP DP  RH WIND       PRES   REMARKS
CHICAGO-OHARE  CLOUDY    45  44  97 NE15      29.91F FOG
CHICAGO-MIDWAY DRIZZLE   47  44  90 NE17      29.91S FOG
AURORA         CLOUDY    47  45  93 NE13G22   29.90F FOG
LANSING*       RAIN      47  47  99 NE12      29.90S
WAUKEGAN       CLOUDY    43  43 100 NE13G20   29.94R FOG
DUPAGE AIRPORT CLOUDY    45  43  93 NE17      29.90F FOG
WHEELING       CLOUDY    45  43  93 NE13G23   29.93F FOG
MORRIS*        CLOUDY    47  46  95 NE9       29.88S FOG
NORTHERLY ISL    N/A     44  43  96 N13         N/A
NORTHERLY ISL    N/A     44  43  96 N13         N/A
$$

LMZ740>746-010600-
SOUTHERN LAKE MICHIGAN

STATION/POSITION SKY/WX   TEMP    WIND        PRES    VSBY  WAVE
                          AIR SEA DIR/SP/G                  HT/PER
                          (F)     (DEG/KT/KT) (MB)    (MI)  (FT/S)
SOUTHERN BUOY              43 40   50/ 19/ 21 1014.1          2/ 4
HARRISON CRIB              44      40/ 21/ 23   N/A
BURNHAM HARBOR             44      30/ 14/ 18   N/A
CALUMET HARBOR             44      30/ 13/ 18 1012.2F
BURNS HARBOR               47      40/ 15/ 19 1012.5F
MICHIGAN CITY              47      30/ 12/ 13   N/A
ST. JOSEPH                 49 48                N/A           2/ 4
$$

ILZ025>027-034>036-040-047-049-050-058-095>099-010600-
WEST-CENTRAL ILLINOIS

CITY           SKY/WX    TMP DP  RH WIND       PRES   REMARKS
QUINCY         FOG       55  55 100 N12       29.84R VSB 1/4
MACOMB*        CLOUDY    49  49 100 NE13      29.89R FOG
PITTSFIELD*    CLEAR     55  54  97 CALM      29.85R
$$

ILZ028>032-037-038-041>044-048-051>054-059>061-010600-
CENTRAL ILLINOIS

CITY           SKY/WX    TMP DP  RH WIND       PRES   REMARKS
BLOOMINGTON    FOG       51  51 100 NE13      29.86F VSB<1/4
DECATUR        CLOUDY    62  60  93 S8        29.83S
PEORIA         CLOUDY    50  48  93 NE8       29.87R FOG
LINCOLN*       CLOUDY    57  57 100 N10       29.83R FOG
SPRINGFIELD    PTCLDY    63  61  93 S6        29.80R
TAYLORVILLE    NOT AVBL
$$

ILZ033-039-045-046-055>057-062-063-010600-
EAST-CENTRAL ILLINOIS

CITY           SKY/WX    TMP DP  RH WIND       PRES   REMARKS
CHAMPAIGN      FOG       57  57 100 SE5       29.84F VSB 1/4
MATTOON        CLOUDY    63  60  90 S7        29.84F
$$

ILZ079-100>102-010600-
SOUTHWEST ILLINOIS

CITY           SKY/WX    TMP DP  RH WIND       PRES   REMARKS
ALTON          CLOUDY    58  55  90 SE7       29.86S
BELLEVILLE     LGT RAIN  59  59 100 N3        29.85R
CAHOKIA*       CLOUDY    60  57  89 CALM      29.85F
SPARTA*        HVY RAIN  57  56  96 E3        29.90R
$$

ILZ064>066-069>071-074>076-080>082-084>086-088>090-092>094-010600-
SOUTH-CENTRAL ILLINOIS

CITY           SKY/WX    TMP DP  RH WIND       PRES   REMARKS
CARBONDALE     CLOUDY    61  59  93 NW7       29.88R
CAIRO*         CLOUDY    65  63  91 NW5       29.86R
EFFINGHAM*     LGT RAIN  61  56  81 SW16G22   29.86F
MT. VERNON     CLOUDY    59  52  77 W3        29.93R THUNDER
SALEM*         TSTM      61  56  83 W5        29.89R
$$

ILZ067-068-072-073-078-083-087-091-010600-
SOUTHEAST ILLINOIS

CITY           SKY/WX    TMP DP  RH WIND       PRES   REMARKS
LAWRENCEVILLE  PTCLDY    64  64 100 S5          N/A
FLORA*         CLOUDY    61  57  87 NW7       29.88S
HARRISBURG*    CLOUDY    63  63 100 CALM      29.88R
ROBINSON*      FOG       60  60 100 CALM      29.87S VSB 1
CARMI*         CLOUDY    63  63  99 CALM      29.87S
$$

ABBREVIATIONS USED IN REMARKS
   TC - TEMPERATURE IN CELSIUS
  WCI - WIND CHILL INDEX
   HX - HEAT INDEX
  VSB - VISIBILITY
$$





USA.gov is the U.S. government's official web portal to all federal, state and local government web resources and services.